Terminal Aerodrome Forecast
Issued by NWS

Home | Current Version | Previous Version | Text Only | Print | Product List | Glossary On
Versions: 1 2 3 4 5 6 7 8 9 10 11 12 13 14 15 16 17 18 19
000
FTUS42 KMHX 211134
TAFOAJ
TAF
KOAJ 211134Z 2112/2212 22005KT P6SM BKN007
     FM211400 24006KT P6SM SCT015 BKN140
     FM211700 23006KT P6SM VCSH SCT025 BKN040
     FM212200 19007KT P6SM SCT035 BKN200
     FM220800 21004KT P6SM SCT005 BKN200
      AMD LTD TO CLD VIS AND WIND=

USA.gov is the U.S. government's official web portal to all federal, state and local government web resources and services.